�������l�o���
Date,Time,MP-1(��Sv/h),MP-2(��Sv/h),MP-3(��Sv/h),MP-4(��Sv/h),MP-5(��Sv/h),MP-6(��Sv/h),MP-7(��Sv/h),MP-8(��Sv/h),����,����(m/s),���J
2023/02/01,00:00,0.559,0.808,0.511,1.041,0.714,0.320,0.582,0.554,-,-,��
2023/02/01,00:10,0.559,0.808,0.512,1.042,0.716,0.319,0.582,0.555,-,-,��
2023/02/01,00:20,0.559,0.810,0.512,1.042,0.716,0.320,0.580,0.554,-,-,��
2023/02/01,00:30,0.557,0.809,0.512,1.041,0.715,0.319,0.582,0.554,-,-,��
2023/02/01,00:40,0.559,0.809,0.513,1.041,0.714,0.319,0.581,0.554,-,-,��
2023/02/01,00:50,0.559,0.808,0.512,1.039,0.714,0.319,0.580,0.555,-,-,��
2023/02/01,01:00,0.559,0.809,0.511,1.040,0.713,0.320,0.583,0.555,-,-,��
2023/02/01,01:10,0.560,0.809,0.513,1.042,0.715,0.320,0.582,0.553,-,-,��
2023/02/01,01:20,0.557,0.808,0.511,1.043,0.714,0.320,0.583,0.553,-,-,��
2023/02/01,01:30,0.560,0.809,0.511,1.040,0.714,0.321,0.582,0.555,-,-,��
2023/02/01,01:40,0.558,0.810,0.512,1.043,0.715,0.319,0.579,0.555,-,-,��
2023/02/01,01:50,0.559,0.809,0.513,1.043,0.715,0.321,0.581,0.554,-,-,��
2023/02/01,02:00,0.559,0.807,0.514,1.043,0.715,0.320,0.582,0.554,-,-,��
2023/02/01,02:10,0.558,0.809,0.512,1.041,0.716,0.319,0.582,0.555,-,-,��
2023/02/01,02:20,0.559,0.807,0.511,1.042,0.715,0.320,0.581,0.555,-,-,��
2023/02/01,02:30,0.559,0.810,0.510,1.042,0.712,0.320,0.581,0.555,-,-,��
2023/02/01,02:40,0.560,0.809,0.512,1.041,0.713,0.319,0.583,0.553,-,-,��
2023/02/01,02:50,0.559,0.807,0.512,1.037,0.714,0.320,0.581,0.555,-,-,��
2023/02/01,03:00,0.558,0.808,0.514,1.040,0.715,0.319,0.582,0.555,-,-,��
2023/02/01,03:10,0.558,0.810,0.512,1.039,0.712,0.320,0.583,0.554,-,-,��
2023/02/01,03:20,0.559,0.809,0.510,1.044,0.714,0.320,0.582,0.552,-,-,��
2023/02/01,03:30,0.558,0.809,0.512,1.042,0.713,0.321,0.582,0.554,-,-,��
2023/02/01,03:40,0.560,0.810,0.513,1.042,0.715,0.320,0.582,0.555,-,-,��
2023/02/01,03:50,0.557,0.805,0.511,1.042,0.713,0.320,0.582,0.553,-,-,��
2023/02/01,04:00,0.558,0.806,0.512,1.042,0.712,0.320,0.582,0.553,-,-,��
2023/02/01,04:10,0.558,0.807,0.513,1.043,0.715,0.320,0.581,0.554,-,-,��
2023/02/01,04:20,0.559,0.808,0.511,1.041,0.713,0.321,0.582,0.553,-,-,��
2023/02/01,04:30,0.560,0.807,0.512,1.042,0.714,0.321,0.582,0.552,-,-,��
2023/02/01,04:40,0.557,0.808,0.511,1.040,0.715,0.320,0.583,0.553,-,-,��
2023/02/01,04:50,0.558,0.806,0.513,1.041,0.714,0.320,0.583,0.555,-,-,��
2023/02/01,05:00,0.560,0.807,0.511,1.041,0.715,0.320,0.584,0.553,-,-,��
2023/02/01,05:10,0.558,0.807,0.511,1.041,0.712,0.321,0.582,0.555,-,-,��
2023/02/01,05:20,0.559,0.809,0.511,1.041,0.713,0.320,0.582,0.553,-,-,��
2023/02/01,05:30,0.559,0.807,0.510,1.042,0.714,0.319,0.582,0.555,-,-,��
2023/02/01,05:40,0.559,0.808,0.513,1.042,0.715,0.319,0.582,0.553,-,-,��
2023/02/01,05:50,0.558,0.809,0.512,1.042,0.713,0.320,0.581,0.554,-,-,��
2023/02/01,06:00,0.558,0.807,0.511,1.042,0.712,0.321,0.582,0.554,-,-,��
2023/02/01,06:10,0.560,0.808,0.511,1.041,0.715,0.319,0.582,0.554,-,-,��
2023/02/01,06:20,0.558,0.807,0.513,1.043,0.714,0.320,0.581,0.553,-,-,��
2023/02/01,06:30,0.558,0.806,0.513,1.040,0.713,0.319,0.582,0.555,-,-,��
2023/02/01,06:40,0.559,0.807,0.511,1.041,0.715,0.320,0.582,0.554,-,-,��
2023/02/01,06:50,0.558,0.808,0.509,1.041,0.713,0.320,0.583,0.555,-,-,��
2023/02/01,07:00,0.558,0.808,0.512,1.042,0.713,0.319,0.581,0.555,-,-,��
2023/02/01,07:10,0.559,0.808,0.512,1.040,0.715,0.319,0.583,0.553,-,-,��
2023/02/01,07:20,0.561,0.808,0.513,1.042,0.714,0.319,0.580,0.553,-,-,��
2023/02/01,07:30,0.558,0.805,0.511,1.043,0.714,0.320,0.581,0.555,-,-,��
2023/02/01,07:40,0.559,0.809,0.513,1.041,0.714,0.320,0.583,0.553,-,-,��
2023/02/01,07:50,0.557,0.808,0.511,1.039,0.713,0.320,0.582,0.553,-,-,��
2023/02/01,08:00,0.560,0.808,0.513,1.043,0.713,0.320,0.582,0.555,-,-,��
2023/02/01,08:10,0.560,0.808,0.512,1.042,0.714,0.320,0.584,0.554,-,-,��
2023/02/01,08:20,0.560,0.806,0.514,1.041,0.712,0.319,0.585,0.554,-,-,��
2023/02/01,08:30,0.559,0.806,0.513,1.043,0.713,0.321,0.583,0.555,-,-,��
2023/02/01,08:40,0.560,0.806,0.513,1.042,0.715,0.321,0.583,0.554,-,-,��
2023/02/01,08:50,0.561,0.808,0.513,1.041,0.713,0.319,0.584,0.554,-,-,��
2023/02/01,09:00,0.561,0.808,0.512,1.041,0.714,0.321,0.583,0.553,-,-,��
2023/02/01,09:10,0.562,0.809,0.513,1.043,0.716,0.322,0.583,0.555,-,-,��
2023/02/01,09:20,0.562,0.809,0.514,1.041,0.715,0.322,0.584,0.556,-,-,��
2023/02/01,09:30,0.562,0.808,0.514,1.043,0.713,0.320,0.585,0.555,-,-,��
2023/02/01,09:40,0.562,0.810,0.513,1.042,0.713,0.322,0.584,0.555,-,-,��
2023/02/01,09:50,0.561,0.810,0.513,1.043,0.715,0.322,0.585,0.555,-,-,��
2023/02/01,10:00,0.562,0.811,0.514,1.042,0.714,0.321,0.584,0.555,-,-,��
2023/02/01,10:10,0.561,0.810,0.512,1.042,0.714,0.321,0.583,0.555,-,-,��
2023/02/01,10:20,0.561,0.808,0.512,1.043,0.714,0.320,0.583,0.555,-,-,��
2023/02/01,10:30,0.564,0.807,0.512,1.043,0.715,0.323,0.583,0.556,-,-,��
2023/02/01,10:40,0.563,0.812,0.512,1.042,0.716,0.321,0.583,0.556,-,-,��
2023/02/01,10:50,0.562,0.809,0.513,1.046,0.719,0.322,0.582,0.557,-,-,��
2023/02/01,11:00,0.562,0.811,0.511,1.044,0.715,0.322,0.583,0.556,-,-,��
2023/02/01,11:10,0.565,0.810,0.513,1.042,0.715,0.322,0.584,0.555,-,-,��
2023/02/01,11:20,0.564,0.808,0.514,1.044,0.718,0.324,0.583,0.558,-,-,��
2023/02/01,11:30,0.562,0.811,0.515,1.044,0.716,0.322,0.583,0.556,-,-,��
2023/02/01,11:40,0.566,0.810,0.514,1.044,0.718,0.323,0.583,0.556,-,-,��
2023/02/01,11:50,0.565,0.809,0.516,1.043,0.718,0.323,0.585,0.557,-,-,��
2023/02/01,12:00,0.564,0.812,0.514,1.044,0.719,0.324,0.585,0.555,-,-,��
2023/02/01,12:10,0.564,0.811,0.515,1.045,0.717,0.323,0.584,0.557,-,-,��
2023/02/01,12:20,0.565,0.812,0.517,1.045,0.717,0.322,0.583,0.556,-,-,��
2023/02/01,12:30,0.564,0.812,0.515,1.045,0.719,0.322,0.584,0.558,-,-,��
2023/02/01,12:40,0.565,0.810,0.516,1.047,0.716,0.324,0.584,0.557,-,-,��
2023/02/01,12:50,0.564,0.810,0.516,1.046,0.717,0.323,0.583,0.557,-,-,��
2023/02/01,13:00,0.565,0.812,0.515,1.045,0.717,0.324,0.584,0.557,-,-,��
2023/02/01,13:10,0.565,0.810,0.516,1.045,0.719,0.323,0.584,0.555,-,-,��
2023/02/01,13:20,0.567,0.810,0.515,1.044,0.717,0.323,0.582,0.557,-,-,��
2023/02/01,13:30,0.566,0.810,0.515,1.046,0.717,0.323,0.585,0.555,-,-,��
2023/02/01,13:40,0.564,0.812,0.514,1.046,0.717,0.325,0.585,0.553,-,-,��
2023/02/01,13:50,0.565,0.809,0.516,-,0.718,0.324,0.584,0.555,-,-,��
2023/02/01,14:00,0.566,0.810,0.514,-,0.717,0.324,0.585,0.553,-,-,��
2023/02/01,14:10,0.566,0.811,0.517,-,0.717,0.323,0.584,0.556,-,-,��
2023/02/01,14:20,0.567,0.811,0.515,-,0.718,0.325,0.586,0.553,-,-,��
2023/02/01,14:30,0.565,0.811,0.515,-,0.719,0.325,0.585,0.554,-,-,��
2023/02/01,14:40,0.567,0.811,0.516,-,0.719,0.323,0.585,0.555,-,-,��
2023/02/01,14:50,0.569,0.811,0.515,1.046,0.719,0.323,0.587,0.556,-,-,��
2023/02/01,15:00,0.567,0.813,0.515,1.046,0.719,0.323,0.586,0.554,-,-,��
2023/02/01,15:10,0.569,0.812,0.514,1.045,0.720,0.325,0.587,0.556,-,-,��
2023/02/01,15:20,0.568,0.813,-,1.047,0.719,0.325,0.588,0.555,-,-,��
2023/02/01,15:30,0.568,0.811,-,1.045,0.720,0.325,0.588,0.558,-,-,��
2023/02/01,15:40,0.567,0.816,-,1.048,0.722,0.324,0.589,0.558,-,-,��
2023/02/01,15:50,0.569,0.814,-,1.047,0.720,0.324,0.588,0.558,-,-,��
2023/02/01,16:00,0.567,0.815,0.516,1.046,0.720,0.324,0.586,0.558,-,-,��
2023/02/01,16:10,0.568,0.814,0.517,1.048,0.719,0.326,0.585,0.557,-,-,��
2023/02/01,16:20,0.567,0.818,0.517,1.047,0.721,0.324,0.586,0.558,-,-,��
2023/02/01,16:30,0.567,0.815,0.516,1.048,0.720,0.325,0.587,0.558,-,-,��
2023/02/01,16:40,0.567,0.816,0.517,1.048,0.720,0.324,0.587,0.558,-,-,��
2023/02/01,16:50,0.567,0.815,0.517,1.045,0.720,0.326,0.586,0.556,-,-,��
2023/02/01,17:00,0.568,0.817,0.519,1.049,0.720,0.325,0.587,0.559,-,-,��
2023/02/01,17:10,0.569,0.816,0.517,1.047,0.722,0.325,0.587,0.559,-,-,��
2023/02/01,17:20,0.567,0.813,0.516,1.046,0.722,0.324,0.588,0.558,-,-,��
2023/02/01,17:30,0.567,0.814,0.517,1.048,0.723,0.324,0.586,0.557,-,-,��
2023/02/01,17:40,0.568,0.817,0.518,1.047,0.723,0.324,0.589,0.558,-,-,��
2023/02/01,17:50,0.569,0.815,0.518,1.050,0.722,0.325,0.588,0.558,-,-,��
2023/02/01,18:00,0.569,0.817,0.516,1.048,0.722,0.325,0.589,0.557,-,-,��
2023/02/01,18:10,0.569,0.818,0.516,1.047,0.723,0.324,0.587,0.557,-,-,��
2023/02/01,18:20,0.567,0.816,0.518,1.049,0.722,0.325,0.588,0.557,-,-,��
2023/02/01,18:30,0.569,0.817,0.516,1.050,0.721,0.323,0.586,0.557,-,-,��
2023/02/01,18:40,0.567,0.817,0.517,1.048,0.723,0.324,0.587,0.556,-,-,��
2023/02/01,18:50,0.567,0.816,0.518,1.049,0.724,0.324,0.586,0.558,-,-,��
2023/02/01,19:00,0.568,0.819,0.516,1.050,0.725,0.324,0.587,0.557,-,-,��
2023/02/01,19:10,0.567,0.815,0.517,1.048,0.723,0.323,0.587,0.557,-,-,��
2023/02/01,19:20,0.566,0.816,0.517,1.049,0.723,0.325,0.589,0.557,-,-,��
2023/02/01,19:30,0.569,0.816,0.518,1.049,0.723,0.324,0.587,0.556,-,-,��
2023/02/01,19:40,0.567,0.816,0.516,1.049,0.722,0.323,0.587,0.557,-,-,��
2023/02/01,19:50,0.568,0.815,0.516,1.047,0.722,0.325,0.586,0.557,-,-,��
2023/02/01,20:00,0.566,0.817,0.516,1.048,0.723,0.323,0.586,0.558,-,-,��
2023/02/01,20:10,0.567,0.816,0.518,1.049,0.722,0.324,0.586,0.557,-,-,�L
2023/02/01,20:20,0.567,0.816,0.516,1.048,0.723,0.324,0.586,0.557,-,-,�L
2023/02/01,20:30,0.567,0.816,0.516,1.052,0.724,0.324,0.586,0.557,-,-,�L
2023/02/01,20:40,0.566,0.817,0.517,1.049,0.721,0.324,0.588,0.557,-,-,��
2023/02/01,20:50,0.567,0.816,0.515,1.048,0.722,0.325,0.587,0.557,-,-,��
2023/02/01,21:00,0.567,0.816,0.516,1.048,0.722,0.323,0.588,0.558,-,-,��
2023/02/01,21:10,0.568,0.816,0.516,1.049,0.724,0.325,0.587,0.557,-,-,��
2023/02/01,21:20,0.568,0.816,0.515,1.050,0.722,0.323,0.588,0.556,-,-,��
2023/02/01,21:30,0.566,0.816,0.515,1.046,0.723,0.323,0.588,0.558,-,-,��
2023/02/01,21:40,0.567,0.818,0.515,1.050,0.722,0.323,0.586,0.559,-,-,��
2023/02/01,21:50,0.567,0.815,0.515,1.050,0.722,0.324,0.586,0.557,-,-,��
2023/02/01,22:00,0.567,0.816,0.515,1.050,0.722,0.323,0.587,0.557,-,-,��
2023/02/01,22:10,0.567,0.816,0.516,1.048,0.723,0.322,0.586,0.559,-,-,��
2023/02/01,22:20,0.566,0.816,0.516,1.049,0.722,0.325,0.586,0.559,-,-,��
2023/02/01,22:30,0.566,0.817,0.515,1.051,0.721,0.325,0.587,0.558,-,-,��
2023/02/01,22:40,0.566,0.817,0.516,1.049,0.724,0.323,0.587,0.558,-,-,��
2023/02/01,22:50,0.567,0.816,0.515,1.049,0.724,0.322,0.586,0.560,-,-,��
2023/02/01,23:00,0.568,0.816,0.515,1.050,0.723,0.323,0.587,0.558,-,-,��
2023/02/01,23:10,0.566,0.817,0.516,1.049,0.724,0.323,0.587,0.559,-,-,��
2023/02/01,23:20,0.565,0.818,0.516,1.047,0.722,0.323,0.585,0.559,-,-,��
2023/02/01,23:30,0.565,0.817,0.517,1.049,0.722,0.322,0.587,0.560,-,-,��
2023/02/01,23:40,0.566,0.815,0.516,1.049,0.722,0.323,0.585,0.561,-,-,��
2023/02/01,23:50,0.566,0.817,0.516,1.049,0.725,0.322,0.587,0.560,-,-,�L
